Tiempo cada hora Gogotl

Hoy, 4 Agosto, Miércoles

Tiempo Temperatura Precipitaciones Viento Presión Humedad
00:00 +16°C° 0 mm 2 mps 642 mmHg 69%
01:00 +16°C° 0 mm 2 mps 643 mmHg 69%
02:00 +16°C° 0 mm 2 mps 643 mmHg 69%
03:00 +16°C° 0 mm 2 mps 643 mmHg 69%
04:00 +16°C° 0 mm 2 mps 643 mmHg 69%
05:00 +17°C° 0 mm 2 mps 643 mmHg 69%
06:00 +17°C° 0 mm 2 mps 644 mmHg 69%
07:00 +20°C° 0 mm 1 mps 644 mmHg 62%
08:00 +22°C° 0 mm 1 mps 644 mmHg 55%
09:00 +24°C° 0 mm 1 mps 645 mmHg 48%
10:00 +25°C° 0 mm 1 mps 645 mmHg 45%
11:00 +26°C° 0 mm 1 mps 645 mmHg 43%
12:00 +27°C° 0 mm 2 mps 645 mmHg 41%
13:00 +27°C° 0.2 mm 2 mps 645 mmHg 42%
14:00 +27°C° 0.2 mm 1 mps 645 mmHg 43%
15:00 +27°C° 0.2 mm 1 mps 645 mmHg 45%
16:00 +26°C° 0.2 mm 1 mps 644 mmHg 50%
17:00 +25°C° 0.2 mm 1 mps 644 mmHg 55%
18:00 +24°C° 0.2 mm 1 mps 644 mmHg 60%
19:00 +23°C° 0.1 mm 1 mps 644 mmHg 62%
20:00 +21°C° 0.1 mm 1 mps 644 mmHg 65%
21:00 +19°C° 0.1 mm 2 mps 644 mmHg 67%
22:00 +19°C° 0 mm 2 mps 644 mmHg 68%
23:00 +18°C° 0 mm 2 mps 644 mmHg 68%

Mañana, 5 Agosto, Jueves

Tiempo Temperatura Precipitaciones Viento Presión Humedad
00:00 +18°C° 0 mm 2 mps 644 mmHg 69%
01:00 +18°C° 0.1 mm 2 mps 643 mmHg 69%
02:00 +18°C° 0.1 mm 2 mps 643 mmHg 69%
03:00 +18°C° 0.1 mm 2 mps 643 mmHg 69%
04:00 +18°C° 0.2 mm 2 mps 643 mmHg 71%
05:00 +18°C° 0.2 mm 2 mps 643 mmHg 73%
06:00 +18°C° 0.2 mm 2 mps 643 mmHg 75%
07:00 +21°C° 0.2 mm 1 mps 644 mmHg 67%
08:00 +23°C° 0.2 mm 1 mps 644 mmHg 59%
09:00 +25°C° 0.2 mm 1 mps 645 mmHg 52%
10:00 +25°C° 0.6 mm 1 mps 645 mmHg 50%
11:00 +26°C° 0.6 mm 1 mps 645 mmHg 47%
12:00 +27°C° 0.6 mm 1 mps 645 mmHg 45%
13:00 +27°C° 0.5 mm 2 mps 644 mmHg 47%
14:00 +26°C° 0.5 mm 2 mps 644 mmHg 49%
15:00 +26°C° 0.5 mm 2 mps 644 mmHg 51%
16:00 +24°C° 0.6 mm 2 mps 644 mmHg 58%
17:00 +23°C° 0.6 mm 1 mps 644 mmHg 65%
18:00 +21°C° 0.6 mm 1 mps 643 mmHg 71%
19:00 +21°C° 0 mm 1 mps 643 mmHg 71%
20:00 +20°C° 0 mm 1 mps 643 mmHg 72%
21:00 +18°C° 0 mm 2 mps 643 mmHg 72%
22:00 +18°C° 0 mm 2 mps 643 mmHg 72%
23:00 +17°C° 0 mm 2 mps 642 mmHg 72%

Pasado mañana, 6 Agosto, Viernes

Tiempo Temperatura Precipitaciones Viento Presión Humedad
00:00 +17°C° 0 mm 2 mps 642 mmHg 72%
01:00 +17°C° 0 mm 3 mps 642 mmHg 72%
02:00 +17°C° 0 mm 3 mps 642 mmHg 72%
03:00 +16°C° 0 mm 3 mps 641 mmHg 71%
04:00 +17°C° 0 mm 3 mps 642 mmHg 71%
05:00 +17°C° 0 mm 3 mps 642 mmHg 70%
06:00 +17°C° 0 mm 3 mps 642 mmHg 70%
07:00 +20°C° 0 mm 2 mps 642 mmHg 62%
08:00 +23°C° 0 mm 1 mps 643 mmHg 54%
09:00 +26°C° 0 mm 1 mps 643 mmHg 45%
10:00 +27°C° 0 mm 1 mps 643 mmHg 43%
11:00 +28°C° 0 mm 1 mps 643 mmHg 40%
12:00 +29°C° 0 mm 2 mps 643 mmHg 37%
13:00 +29°C° 0 mm 2 mps 643 mmHg 37%
14:00 +29°C° 0 mm 2 mps 643 mmHg 37%
15:00 +30°C° 0 mm 2 mps 642 mmHg 37%
16:00 +29°C° 0 mm 2 mps 642 mmHg 43%
17:00 +28°C° 0 mm 2 mps 642 mmHg 49%
18:00 +26°C° 0 mm 2 mps 641 mmHg 55%
19:00 +25°C° 0 mm 2 mps 641 mmHg 56%
20:00 +23°C° 0 mm 2 mps 641 mmHg 56%
21:00 +20°C° 0 mm 3 mps 641 mmHg 57%
22:00 +19°C° 0 mm 3 mps 641 mmHg 55%
23:00 +19°C° 0 mm 3 mps 641 mmHg 53%

7 Agosto, Sábado

Tiempo Temperatura Precipitaciones Viento Presión Humedad
00:00 +18°C° 0 mm 3 mps 640 mmHg 52%
01:00 +18°C° 0 mm 3 mps 640 mmHg 51%
02:00 +18°C° 0 mm 3 mps 640 mmHg 50%
03:00 +17°C° 0 mm 3 mps 640 mmHg 49%
04:00 +17°C° 0 mm 3 mps 640 mmHg 51%
05:00 +18°C° 0 mm 3 mps 640 mmHg 53%
06:00 +18°C° 0 mm 3 mps 640 mmHg 55%
07:00 +20°C° 0 mm 3 mps 640 mmHg 48%
08:00 +24°C° 0 mm 2 mps 641 mmHg 42%
09:00 +27°C° 0 mm 1 mps 641 mmHg 35%
10:00 +28°C° 0 mm 1 mps 641 mmHg 34%
11:00 +30°C° 0 mm 1 mps 641 mmHg 32%
12:00 +31°C° 0 mm 1 mps 642 mmHg 30%
13:00 +31°C° 0 mm 1 mps 641 mmHg 30%
14:00 +31°C° 0 mm 2 mps 641 mmHg 31%
15:00 +32°C° 0 mm 2 mps 641 mmHg 31%
16:00 +30°C° 0 mm 2 mps 641 mmHg 37%
17:00 +29°C° 0 mm 1 mps 641 mmHg 43%
18:00 +28°C° 0 mm 1 mps 641 mmHg 49%
19:00 +26°C° 0 mm 2 mps 641 mmHg 50%
20:00 +24°C° 0 mm 3 mps 641 mmHg 51%
21:00 +21°C° 0 mm 4 mps 641 mmHg 52%
22:00 +21°C° 0 mm 3 mps 641 mmHg 50%
23:00 +21°C° 0 mm 3 mps 641 mmHg 47%

8 Agosto, Domingo

Tiempo Temperatura Precipitaciones Viento Presión Humedad
00:00 +21°C° 0 mm 3 mps 642 mmHg 45%
01:00 +20°C° 0 mm 3 mps 641 mmHg 46%
02:00 +20°C° 0 mm 3 mps 641 mmHg 47%
03:00 +19°C° 0 mm 3 mps 641 mmHg 48%
04:00 +20°C° 0 mm 3 mps 641 mmHg 51%
05:00 +20°C° 0 mm 2 mps 641 mmHg 53%
06:00 +20°C° 0 mm 2 mps 642 mmHg 55%
07:00 +24°C° 0 mm 2 mps 642 mmHg 49%
08:00 +26°C° 0 mm 1 mps 643 mmHg 44%
09:00 +28°C° 0 mm 1 mps 643 mmHg 38%
10:00 +29°C° 0 mm 1 mps 643 mmHg 38%
11:00 +30°C° 0 mm 2 mps 644 mmHg 37%
12:00 +31°C° 0 mm 2 mps 644 mmHg 36%
13:00 +31°C° 0.1 mm 2 mps 644 mmHg 36%
14:00 +31°C° 0.1 mm 2 mps 644 mmHg 37%
15:00 +31°C° 0.1 mm 2 mps 644 mmHg 37%
16:00 +30°C° 0 mm 2 mps 644 mmHg 43%
17:00 +29°C° 0 mm 1 mps 644 mmHg 48%
18:00 +28°C° 0 mm 1 mps 644 mmHg 54%
19:00 +26°C° 0.1 mm 1 mps 644 mmHg 59%
20:00 +24°C° 0.1 mm 1 mps 644 mmHg 63%
21:00 +22°C° 0.1 mm 1 mps 644 mmHg 68%
22:00 +20°C° 0.2 mm 2 mps 644 mmHg 70%
23:00 +20°C° 0.2 mm 2 mps 644 mmHg 73%

9 Agosto, Lunes

Tiempo Temperatura Precipitaciones Viento Presión Humedad
00:00 +19°C° 0.2 mm 2 mps 644 mmHg 75%
01:00 +19°C° 0 mm 2 mps 644 mmHg 74%
02:00 +19°C° 0 mm 2 mps 643 mmHg 73%
03:00 +19°C° 0 mm 2 mps 643 mmHg 72%
04:00 +19°C° 0 mm 2 mps 643 mmHg 71%
05:00 +19°C° 0 mm 2 mps 644 mmHg 70%
06:00 +20°C° 0 mm 2 mps 644 mmHg 69%
07:00 +23°C° 0 mm 1 mps 644 mmHg 63%
08:00 +24°C° 0 mm 1 mps 644 mmHg 57%
09:00 +26°C° 0 mm 1 mps 645 mmHg 51%
10:00 +27°C° 0 mm 1 mps 645 mmHg 49%
11:00 +28°C° 0 mm 2 mps 645 mmHg 47%
12:00 +29°C° 0 mm 2 mps 645 mmHg 45%
13:00 +30°C° 0.2 mm 2 mps 645 mmHg 45%
14:00 +30°C° 0.2 mm 2 mps 645 mmHg 46%
15:00 +30°C° 0.2 mm 3 mps 645 mmHg 46%
16:00 +28°C° 1.5 mm 2 mps 645 mmHg 56%
17:00 +26°C° 1.5 mm 2 mps 644 mmHg 65%
18:00 +24°C° 1.5 mm 2 mps 644 mmHg 75%
19:00 +23°C° 1.1 mm 2 mps 644 mmHg 76%
20:00 +21°C° 1.1 mm 2 mps 644 mmHg 77%
21:00 +20°C° 1.1 mm 2 mps 644 mmHg 79%
22:00 +20°C° 0 mm 2 mps 644 mmHg 77%
23:00 +19°C° 0 mm 2 mps 644 mmHg 76%
Mostrar más

Necesitamos Su Consentimiento

Meteoprog y nuestros Proveedores de Servicios pueden almacenar y acceder a sus datos personales como cookies, identificadores de dispositivo u otras tecnologías similares de su dispositivo y procesar dichos datos para personalizar contenido y anuncios, además de ofrecer funciones de redes sociales y analizar el tráfico.

  • Almacenar y/o acceder a información en su dispositivo

    Se puede almacenar o acceder a cookies, identificadores de dispositivo u otra información de su dispositivo para los fines anteriormente indicados.

  • Anuncios y contenido personalizados, medición de anuncios y contenido, percepciones del público, y desarrollo de productos

    Los anuncios y el contenido pueden personalizarse en base a su perfil. Se pueden añadir más datos para personalizar mejor los anuncios y contenidos. Se puede medir el rendimiento de los anuncios y contenidos. Se puede obtener la percepción sobre el público que ha visto los anuncios y contenidos. Dichos datos pueden usarse para desarrollar o mejorar la experiencia del usuario, sistemas y software.

Al hacer clic en ‘Estoy De Acuerdo’ usted permitirá el uso de las cookies, identificadores de dispositivo, balizas web u otras tecnologías similares indicadas. Su configuración puede cambiarse desde el navegador de su dispositivo.

Para ciertos fines, los intereses legítimos pueden ser considerados por encima del consentimiento. Puede leer más sobre ello en nuestra Política de Privacidad y Cookies.